TimeCST,TemperatureF,Dew PointF,Humidity,Sea Level PressureIn,VisibilityMPH,Wind Direction,Wind SpeedMPH,Gust SpeedMPH,PrecipitationIn,Events,Conditions,WindDirDegrees,DateUTC
12:58 AM,39.6,26.8,60,30.09,10.0,WNW,4.6,-,N/A,,Mostly Cloudy,290,2013-03-01 06:58:00
1:58 AM,38.7,27.3,64,30.08,10.0,WNW,4.6,-,N/A,,Overcast,300,2013-03-01 07:58:00
2:58 AM,38.5,27.9,66,30.07,10.0,WNW,4.6,-,N/A,,Mostly Cloudy,290,2013-03-01 08:58:00
3:58 AM,37.0,27.7,69,30.06,10.0,WNW,4.6,-,N/A,,Clear,290,2013-03-01 09:58:00
4:58 AM,35.4,27.3,72,30.06,10.0,WNW,4.6,-,N/A,,Clear,290,2013-03-01 10:58:00
5:58 AM,34.5,28.2,78,30.08,10.0,West,2.3,-,N/A,,Clear,270,2013-03-01 11:58:00
6:58 AM,33.3,27.9,81,30.09,10.0,WNW,3.5,-,N/A,,Clear,300,2013-03-01 12:58:00
7:58 AM,39.9,29.5,66,30.11,10.0,West,5.8,-,N/A,,Clear,280,2013-03-01 13:58:00
8:58 AM,43.2,28.8,57,30.12,10.0,NW,8.1,-,N/A,,Clear,310,2013-03-01 14:58:00
9:58 AM,45.1,27.9,51,30.10,10.0,WNW,8.1,-,N/A,,Overcast,300,2013-03-01 15:58:00
10:15 AM,46.4,26.6,46,30.09,10.0,NNW,12.7,20.7,N/A,,Overcast,330,2013-03-01 16:15:00
10:58 AM,48.7,27.1,43,30.09,10.0,WNW,16.1,-,N/A,,Mostly Cloudy,290,2013-03-01 16:58:00
11:58 AM,46.9,26.8,45,30.09,10.0,WNW,10.4,18.4,N/A,,Overcast,290,2013-03-01 17:58:00
12:58 PM,47.5,26.8,45,30.06,10.0,NW,10.4,-,N/A,,Overcast,320,2013-03-01 18:58:00
1:58 PM,47.5,26.8,45,30.04,10.0,WNW,10.4,-,N/A,,Overcast,300,2013-03-01 19:58:00
2:58 PM,48.0,27.0,44,30.04,10.0,WNW,6.9,18.4,N/A,,Overcast,290,2013-03-01 20:58:00
3:58 PM,47.7,27.3,45,30.03,10.0,WNW,12.7,17.3,N/A,,Mostly Cloudy,300,2013-03-01 21:58:00
4:58 PM,46.8,28.8,50,30.04,10.0,WNW,6.9,-,N/A,,Overcast,290,2013-03-01 22:58:00
5:56 PM,44.6,28.4,53,30.05,10.0,West,5.8,-,N/A,,Mostly Cloudy,280,2013-03-01 23:56:00
5:58 PM,44.8,28.6,53,30.06,10.0,WNW,4.6,-,N/A,,Mostly Cloudy,290,2013-03-01 23:58:00
6:58 PM,43.2,26.8,52,30.09,10.0,NW,11.5,-,N/A,,Partly Cloudy,310,2013-03-02 00:58:00
7:58 PM,40.3,27.1,59,30.10,10.0,NW,10.4,-,N/A,,Clear,310,2013-03-02 01:58:00
8:58 PM,38.8,25.0,58,30.12,10.0,WNW,12.7,-,N/A,,Clear,290,2013-03-02 02:58:00
9:58 PM,37.6,25.7,62,30.12,10.0,WNW,6.9,-,N/A,,Clear,300,2013-03-02 03:58:00
10:58 PM,36.5,26.4,67,30.11,10.0,WNW,5.8,-,N/A,,Scattered Clouds,290,2013-03-02 04:58:00
11:58 PM,36.0,27.1,70,30.12,10.0,Variable,3.5,-,N/A,,Mostly Cloudy,0,2013-03-02 05:58:00